owner,sensor,date,latitude,longitude,vertical_datum,wind_speed,wind_to_direction,wind_speed_of_gust,qcFlag 
DISL,ioos:station:DISL:MBLA:1,2017-10-01T00:00:00Z,30.4367,-88.0117,14.2,4.23,355.2,-999.0,'1111122,1111122,1111122' 
DISL,ioos:station:DISL:MBLA:1,2017-10-01T00:30:00Z,30.4367,-88.0117,14.2,6.07,349.8,-999.0,'1111122,1111122,1111122' 
DISL,ioos:station:DISL:MBLA:1,2017-10-01T01:00:00Z,30.4367,-88.0117,14.2,7.08,354.5,-999.0,'1111122,1111122,1111122' 
DISL,ioos:station:DISL:MBLA:1,2017-10-01T01:30:00Z,30.4367,-88.0117,14.2,5.29,51.58,-999.0,'1111122,1111122,1111122' 
DISL,ioos:station:DISL:MBLA:1,2017-10-01T02:00:00Z,30.4367,-88.0117,14.2,3.86,93.4,-999.0,'1111122,1111122,1111122' 
DISL,ioos:station:DISL:MBLA:1,2017-10-01T02:30:00Z,30.4367,-88.0117,14.2,4.01,67.58,-999.0,'1111122,1111122,1111122' 
DISL,ioos:station:DISL:MBLA:1,2017-10-01T03:00:00Z,30.4367,-88.0117,14.2,3.0,10.53,-999.0,'1111122,1111122,1111122' 
DISL,ioos:station:DISL:MBLA:1,2017-10-01T03:30:00Z,30.4367,-88.0117,14.2,5.46,11.0,-999.0,'1111122,1111122,1111122' 
DISL,ioos:station:DISL:MBLA:1,2017-10-01T04:00:00Z,30.4367,-88.0117,14.2,4.7,21.92,-999.0,'1111122,1111122,1111122' 
DISL,ioos:station:DISL:MBLA:1,2017-10-01T04:30:00Z,30.4367,-88.0117,14.2,6.15,62.1,-999.0,'1111122,1111122,1111122' 
DISL,ioos:station:DISL:MBLA:1,2017-10-01T05:00:00Z,30.4367,-88.0117,14.2,10.44,49.19,-999.0,'1111122,1111122,1111122' 
DISL,ioos:station:DISL:MBLA:1,2017-10-01T05:30:00Z,30.4367,-88.0117,14.2,9.92,51.29,-999.0,'1111122,1111122,1111122' 
DISL,ioos:station:DISL:MBLA:1,2017-10-01T06:00:00Z,30.4367,-88.0117,14.2,7.49,55.23,-999.0,'1111122,1111122,1111122' 
DISL,ioos:station:DISL:MBLA:1,2017-10-01T06:30:00Z,30.4367,-88.0117,14.2,6.74,59.77,-999.0,'1111122,1111122,1111122' 
DISL,ioos:station:DISL:MBLA:1,2017-10-01T07:00:00Z,30.4367,-88.0117,14.2,9.3,79.76,-999.0,'1111122,1111122,1111122' 
DISL,ioos:station:DISL:MBLA:1,2017-10-01T07:30:00Z,30.4367,-88.0117,14.2,7.25,81.7,-999.0,'1111122,1111122,1111122' 
DISL,ioos:station:DISL:MBLA:1,2017-10-01T08:00:00Z,30.4367,-88.0117,14.2,6.07,81.7,-999.0,'1111122,1111122,1111122' 
DISL,ioos:station:DISL:MBLA:1,2017-10-01T08:30:00Z,30.4367,-88.0117,14.2,7.65,77.42,-999.0,'1111122,1111122,1111122' 
DISL,ioos:station:DISL:MBLA:1,2017-10-01T09:00:00Z,30.4367,-88.0117,14.2,7.28,101.1,-999.0,'1111122,1111122,1111122' 
DISL,ioos:station:DISL:MBLA:1,2017-10-01T09:30:00Z,30.4367,-88.0117,14.2,6.19,70.12,-999.0,'1111122,1111122,1111122' 
DISL,ioos:station:DISL:MBLA:1,2017-10-01T10:00:00Z,30.4367,-88.0117,14.2,8.17,64.53,-999.0,'1111122,1111122,1111122' 
DISL,ioos:station:DISL:MBLA:1,2017-10-01T10:30:00Z,30.4367,-88.0117,14.2,8.21,61.48,-999.0,'1111122,1111122,1111122' 
DISL,ioos:station:DISL:MBLA:1,2017-10-01T11:00:00Z,30.4367,-88.0117,14.2,10.18,61.87,-999.0,'1111122,1111122,1111122' 
DISL,ioos:station:DISL:MBLA:1,2017-10-01T11:30:00Z,30.4367,-88.0117,14.2,8.89,65.67,-999.0,'1111122,1111122,1111122' 
DISL,ioos:station:DISL:MBLA:1,2017-10-01T12:00:00Z,30.4367,-88.0117,14.2,10.7,73.1,-999.0,'1111122,1111122,1111122' 
DISL,ioos:station:DISL:MBLA:1,2017-10-01T12:30:00Z,30.4367,-88.0117,14.2,10.47,69.58,-999.0,'1111122,1111122,1111122' 
DISL,ioos:station:DISL:MBLA:1,2017-10-01T13:00:00Z,30.4367,-88.0117,14.2,11.39,68.36,-999.0,'1111122,1111122,1111122' 
DISL,ioos:station:DISL:MBLA:1,2017-10-01T13:30:00Z,30.4367,-88.0117,14.2,11.31,72.22,-999.0,'1111122,1111122,1111122' 
DISL,ioos:station:DISL:MBLA:1,2017-10-01T14:00:00Z,30.4367,-88.0117,14.2,11.79,70.79,-999.0,'1111122,1111122,1111122' 
DISL,ioos:station:DISL:MBLA:1,2017-10-01T14:30:00Z,30.4367,-88.0117,14.2,12.15,72.83,-999.0,'1111122,1111122,1111122' 
DISL,ioos:station:DISL:MBLA:1,2017-10-01T15:00:00Z,30.4367,-88.0117,14.2,10.62,77.49,-999.0,'1111122,1111122,1111122' 
DISL,ioos:station:DISL:MBLA:1,2017-10-01T15:30:00Z,30.4367,-88.0117,14.2,10.79,76.66,-999.0,'1111122,1111122,1111122' 
DISL,ioos:station:DISL:MBLA:1,2017-10-01T16:00:00Z,30.4367,-88.0117,14.2,8.31,71.85,-999.0,'1111122,1111122,1111122' 
DISL,ioos:station:DISL:MBLA:1,2017-10-01T16:30:00Z,30.4367,-88.0117,14.2,8.41,66.97,-999.0,'1111122,1111122,1111122' 
DISL,ioos:station:DISL:MBLA:1,2017-10-01T17:00:00Z,30.4367,-88.0117,14.2,7.87,63.91,-999.0,'1111122,1111122,1111122' 
DISL,ioos:station:DISL:MBLA:1,2017-10-01T17:30:00Z,30.4367,-88.0117,14.2,7.6,56.11,-999.0,'1111122,1111122,1111122' 
DISL,ioos:station:DISL:MBLA:1,2017-10-01T18:00:00Z,30.4367,-88.0117,14.2,6.56,58.81,-999.0,'1111122,1111122,1111122' 
DISL,ioos:station:DISL:MBLA:1,2017-10-01T18:30:00Z,30.4367,-88.0117,14.2,7.22,66.8,-999.0,'1111122,1111122,1111122' 
DISL,ioos:station:DISL:MBLA:1,2017-10-01T19:00:00Z,30.4367,-88.0117,14.2,7.31,66.79,-999.0,'1111122,1111122,1111122' 
DISL,ioos:station:DISL:MBLA:1,2017-10-01T19:30:00Z,30.4367,-88.0117,14.2,9.4,74.43,-999.0,'1111122,1111122,1111122' 
DISL,ioos:station:DISL:MBLA:1,2017-10-01T20:00:00Z,30.4367,-88.0117,14.2,9.06,69.31,-999.0,'1111122,1111122,1111122' 
DISL,ioos:station:DISL:MBLA:1,2017-10-01T20:30:00Z,30.4367,-88.0117,14.2,11.99,82.5,-999.0,'1111122,1111122,1111122' 
DISL,ioos:station:DISL:MBLA:1,2017-10-01T21:00:00Z,30.4367,-88.0117,14.2,10.84,79.95,-999.0,'1111122,1111122,1111122' 
DISL,ioos:station:DISL:MBLA:1,2017-10-01T21:30:00Z,30.4367,-88.0117,14.2,9.77,76.21,-999.0,'1111122,1111122,1111122' 
DISL,ioos:station:DISL:MBLA:1,2017-10-01T22:00:00Z,30.4367,-88.0117,14.2,9.84,72.79,-999.0,'1111122,1111122,1111122' 
DISL,ioos:station:DISL:MBLA:1,2017-10-01T22:30:00Z,30.4367,-88.0117,14.2,11.55,64.54,-999.0,'1111122,1111122,1111122' 
DISL,ioos:station:DISL:MBLA:1,2017-10-01T23:00:00Z,30.4367,-88.0117,14.2,11.17,70.01,-999.0,'1111122,1111122,1111122' 
DISL,ioos:station:DISL:MBLA:1,2017-10-01T23:30:00Z,30.4367,-88.0117,14.2,10.29,54.32,-999.0,'1111122,1111122,1111122' 
DISL,ioos:station:DISL:MBLA:1,2017-10-02T00:00:00Z,30.4367,-88.0117,14.2,13.2,54.61,-999.0,'1111122,1111122,1111122' 
DISL,ioos:station:DISL:MBLA:1,2017-10-02T00:30:00Z,30.4367,-88.0117,14.2,10.73,60.63,-999.0,'1111122,1111122,1111122' 
DISL,ioos:station:DISL:MBLA:1,2017-10-02T01:00:00Z,30.4367,-88.0117,14.2,10.67,55.07,-999.0,'1111122,1111122,1111122' 
DISL,ioos:station:DISL:MBLA:1,2017-10-02T01:30:00Z,30.4367,-88.0117,14.2,13.0,57.5,-999.0,'1111122,1111122,1111122' 
DISL,ioos:station:DISL:MBLA:1,2017-10-02T02:00:00Z,30.4367,-88.0117,14.2,12.62,59.23,-999.0,'1111122,1111122,1111122' 
DISL,ioos:station:DISL:MBLA:1,2017-10-02T02:30:00Z,30.4367,-88.0117,14.2,12.58,53.05,-999.0,'1111122,1111122,1111122' 
DISL,ioos:station:DISL:MBLA:1,2017-10-02T03:00:00Z,30.4367,-88.0117,14.2,11.07,54.6,-999.0,'1111122,1111122,1111122' 
DISL,ioos:station:DISL:MBLA:1,2017-10-02T03:30:00Z,30.4367,-88.0117,14.2,11.07,58.29,-999.0,'1111122,1111122,1111122' 
DISL,ioos:station:DISL:MBLA:1,2017-10-02T04:00:00Z,30.4367,-88.0117,14.2,10.91,63.9,-999.0,'1111122,1111122,1111122' 
DISL,ioos:station:DISL:MBLA:1,2017-10-02T04:30:00Z,30.4367,-88.0117,14.2,10.79,69.66,-999.0,'1111122,1111122,1111122' 
DISL,ioos:station:DISL:MBLA:1,2017-10-02T05:00:00Z,30.4367,-88.0117,14.2,10.76,68.67,-999.0,'1111122,1111122,1111122' 
DISL,ioos:station:DISL:MBLA:1,2017-10-02T05:30:00Z,30.4367,-88.0117,14.2,11.53,72.89,-999.0,'1111122,1111122,1111122' 
DISL,ioos:station:DISL:MBLA:1,2017-10-02T06:00:00Z,30.4367,-88.0117,14.2,11.14,74.06,-999.0,'1111122,1111122,1111122' 
DISL,ioos:station:DISL:MBLA:1,2017-10-02T06:30:00Z,30.4367,-88.0117,14.2,12.1,82.8,-999.0,'1111122,1111122,1111122' 
DISL,ioos:station:DISL:MBLA:1,2017-10-02T07:00:00Z,30.4367,-88.0117,14.2,12.35,82.3,-999.0,'1111122,1111122,1111122' 
DISL,ioos:station:DISL:MBLA:1,2017-10-02T07:30:00Z,30.4367,-88.0117,14.2,12.37,82.9,-999.0,'1111122,1111122,1111122' 
DISL,ioos:station:DISL:MBLA:1,2017-10-02T08:00:00Z,30.4367,-88.0117,14.2,11.05,78.22,-999.0,'1111122,1111122,1111122' 
DISL,ioos:station:DISL:MBLA:1,2017-10-02T08:30:00Z,30.4367,-88.0117,14.2,10.43,77.62,-999.0,'1111122,1111122,1111122' 
DISL,ioos:station:DISL:MBLA:1,2017-10-02T09:00:00Z,30.4367,-88.0117,14.2,9.61,74.8,-999.0,'1111122,1111122,1111122' 
DISL,ioos:station:DISL:MBLA:1,2017-10-02T09:30:00Z,30.4367,-88.0117,14.2,9.75,75.42,-999.0,'1111122,1111122,1111122' 
DISL,ioos:station:DISL:MBLA:1,2017-10-02T10:00:00Z,30.4367,-88.0117,14.2,9.3,68.67,-999.0,'1111122,1111122,1111122' 
DISL,ioos:station:DISL:MBLA:1,2017-10-02T10:30:00Z,30.4367,-88.0117,14.2,10.08,69.24,-999.0,'1111122,1111122,1111122' 
DISL,ioos:station:DISL:MBLA:1,2017-10-02T11:00:00Z,30.4367,-88.0117,14.2,10.4,64.34,-999.0,'1111122,1111122,1111122' 
DISL,ioos:station:DISL:MBLA:1,2017-10-02T11:30:00Z,30.4367,-88.0117,14.2,11.16,64.51,-999.0,'1111122,1111122,1111122' 
DISL,ioos:station:DISL:MBLA:1,2017-10-02T12:00:00Z,30.4367,-88.0117,14.2,11.32,64.73,-999.0,'1111122,1111122,1111122' 
DISL,ioos:station:DISL:MBLA:1,2017-10-02T12:30:00Z,30.4367,-88.0117,14.2,10.38,70.12,-999.0,'1111122,1111122,1111122' 
DISL,ioos:station:DISL:MBLA:1,2017-10-02T13:00:00Z,30.4367,-88.0117,14.2,10.69,67.42,-999.0,'1111122,1111122,1111122' 
DISL,ioos:station:DISL:MBLA:1,2017-10-02T13:30:00Z,30.4367,-88.0117,14.2,9.87,69.63,-999.0,'1111122,1111122,1111122' 
DISL,ioos:station:DISL:MBLA:1,2017-10-02T14:00:00Z,30.4367,-88.0117,14.2,10.41,73.77,-999.0,'1111122,1111122,1111122' 
DISL,ioos:station:DISL:MBLA:1,2017-10-02T14:30:00Z,30.4367,-88.0117,14.2,10.09,73.57,-999.0,'1111122,1111122,1111122' 
DISL,ioos:station:DISL:MBLA:1,2017-10-02T15:00:00Z,30.4367,-88.0117,14.2,10.11,86.4,-999.0,'1111122,1111122,1111122' 
DISL,ioos:station:DISL:MBLA:1,2017-10-02T15:30:00Z,30.4367,-88.0117,14.2,9.83,84.1,-999.0,'1111122,1111122,1111122' 
DISL,ioos:station:DISL:MBLA:1,2017-10-02T16:00:00Z,30.4367,-88.0117,14.2,11.43,90.5,-999.0,'1111122,1111122,1111122' 
DISL,ioos:station:DISL:MBLA:1,2017-10-02T16:30:00Z,30.4367,-88.0117,14.2,11.64,90.1,-999.0,'1111122,1111122,1111122' 
DISL,ioos:station:DISL:MBLA:1,2017-10-02T17:00:00Z,30.4367,-88.0117,14.2,11.14,94.3,-999.0,'1111122,1111122,1111122' 
DISL,ioos:station:DISL:MBLA:1,2017-10-02T17:30:00Z,30.4367,-88.0117,14.2,10.83,93.9,-999.0,'1111122,1111122,1111122' 
DISL,ioos:station:DISL:MBLA:1,2017-10-02T18:00:00Z,30.4367,-88.0117,14.2,9.39,89.6,-999.0,'1111122,1111122,1111122' 
DISL,ioos:station:DISL:MBLA:1,2017-10-02T18:30:00Z,30.4367,-88.0117,14.2,10.18,99.2,-999.0,'1111122,1111122,1111122' 
DISL,ioos:station:DISL:MBLA:1,2017-10-02T19:00:00Z,30.4367,-88.0117,14.2,11.39,99.9,-999.0,'1111122,1111122,1111122' 
DISL,ioos:station:DISL:MBLA:1,2017-10-02T19:30:00Z,30.4367,-88.0117,14.2,11.24,97.7,-999.0,'1111122,1111122,1111122' 
DISL,ioos:station:DISL:MBLA:1,2017-10-02T20:00:00Z,30.4367,-88.0117,14.2,12.95,96.6,-999.0,'1111122,1111122,1111122' 
DISL,ioos:station:DISL:MBLA:1,2017-10-02T20:30:00Z,30.4367,-88.0117,14.2,10.82,84.4,-999.0,'1111122,1111122,1111122' 
DISL,ioos:station:DISL:MBLA:1,2017-10-02T21:00:00Z,30.4367,-88.0117,14.2,9.0,85.0,-999.0,'1111122,1111122,1111122' 
DISL,ioos:station:DISL:MBLA:1,2017-10-02T21:30:00Z,30.4367,-88.0117,14.2,8.75,82.6,-999.0,'1111122,1111122,1111122' 
DISL,ioos:station:DISL:MBLA:1,2017-10-02T22:00:00Z,30.4367,-88.0117,14.2,9.01,70.06,-999.0,'1111122,1111122,1111122' 
DISL,ioos:station:DISL:MBLA:1,2017-10-02T22:30:00Z,30.4367,-88.0117,14.2,8.58,84.9,-999.0,'1111122,1111122,1111122' 
DISL,ioos:station:DISL:MBLA:1,2017-10-02T23:00:00Z,30.4367,-88.0117,14.2,6.81,80.8,-999.0,'1111122,1111122,1111122' 
DISL,ioos:station:DISL:MBLA:1,2017-10-02T23:30:00Z,30.4367,-88.0117,14.2,6.51,94.7,-999.0,'1111122,1111122,1111122' 
DISL,ioos:station:DISL:MBLA:1,2017-10-03T00:00:00Z,30.4367,-88.0117,14.2,7.48,92.2,-999.0,'1111122,1111122,1111122' 
DISL,ioos:station:DISL:MBLA:1,2017-10-03T00:30:00Z,30.4367,-88.0117,14.2,6.95,87.0,-999.0,'1111122,1111122,1111122' 
DISL,ioos:station:DISL:MBLA:1,2017-10-03T01:00:00Z,30.4367,-88.0117,14.2,7.32,81.3,-999.0,'1111122,1111122,1111122' 
DISL,ioos:station:DISL:MBLA:1,2017-10-03T01:30:00Z,30.4367,-88.0117,14.2,7.46,76.45,-999.0,'1111122,1111122,1111122' 
DISL,ioos:station:DISL:MBLA:1,2017-10-03T02:00:00Z,30.4367,-88.0117,14.2,7.74,70.43,-999.0,'1111122,1111122,1111122' 
DISL,ioos:station:DISL:MBLA:1,2017-10-03T02:30:00Z,30.4367,-88.0117,14.2,8.14,74.61,-999.0,'1111122,1111122,1111122' 
DISL,ioos:station:DISL:MBLA:1,2017-10-03T03:00:00Z,30.4367,-88.0117,14.2,8.39,70.74,-999.0,'1111122,1111122,1111122' 
DISL,ioos:station:DISL:MBLA:1,2017-10-03T03:30:00Z,30.4367,-88.0117,14.2,8.62,71.54,-999.0,'1111122,1111122,1111122' 
DISL,ioos:station:DISL:MBLA:1,2017-10-03T04:00:00Z,30.4367,-88.0117,14.2,9.24,69.51,-999.0,'1111122,1111122,1111122' 
DISL,ioos:station:DISL:MBLA:1,2017-10-03T04:30:00Z,30.4367,-88.0117,14.2,9.0,76.33,-999.0,'1111122,1111122,1111122' 
DISL,ioos:station:DISL:MBLA:1,2017-10-03T05:00:00Z,30.4367,-88.0117,14.2,9.19,79.01,-999.0,'1111122,1111122,1111122' 
DISL,ioos:station:DISL:MBLA:1,2017-10-03T05:30:00Z,30.4367,-88.0117,14.2,9.05,75.42,-999.0,'1111122,1111122,1111122' 
DISL,ioos:station:DISL:MBLA:1,2017-10-03T06:00:00Z,30.4367,-88.0117,14.2,9.1,76.27,-999.0,'1111122,1111122,1111122' 
DISL,ioos:station:DISL:MBLA:1,2017-10-03T06:30:00Z,30.4367,-88.0117,14.2,9.24,75.61,-999.0,'1111122,1111122,1111122' 
DISL,ioos:station:DISL:MBLA:1,2017-10-03T07:00:00Z,30.4367,-88.0117,14.2,10.21,73.88,-999.0,'1111122,1111122,1111122' 
DISL,ioos:station:DISL:MBLA:1,2017-10-03T07:30:00Z,30.4367,-88.0117,14.2,9.38,76.09,-999.0,'1111122,1111122,1111122' 
DISL,ioos:station:DISL:MBLA:1,2017-10-03T08:00:00Z,30.4367,-88.0117,14.2,10.06,77.6,-999.0,'1111122,1111122,1111122' 
DISL,ioos:station:DISL:MBLA:1,2017-10-03T08:30:00Z,30.4367,-88.0117,14.2,8.78,80.4,-999.0,'1111122,1111122,1111122' 
DISL,ioos:station:DISL:MBLA:1,2017-10-03T09:00:00Z,30.4367,-88.0117,14.2,8.92,77.64,-999.0,'1111122,1111122,1111122' 
DISL,ioos:station:DISL:MBLA:1,2017-10-03T09:30:00Z,30.4367,-88.0117,14.2,8.62,79.08,-999.0,'1111122,1111122,1111122' 
DISL,ioos:station:DISL:MBLA:1,2017-10-03T10:00:00Z,30.4367,-88.0117,14.2,8.27,76.18,-999.0,'1111122,1111122,1111122' 
DISL,ioos:station:DISL:MBLA:1,2017-10-03T10:30:00Z,30.4367,-88.0117,14.2,7.95,71.54,-999.0,'1111122,1111122,1111122' 
DISL,ioos:station:DISL:MBLA:1,2017-10-03T11:00:00Z,30.4367,-88.0117,14.2,9.03,71.8,-999.0,'1111122,1111122,1111122' 
DISL,ioos:station:DISL:MBLA:1,2017-10-03T11:30:00Z,30.4367,-88.0117,14.2,8.71,69.68,-999.0,'1111122,1111122,1111122' 
DISL,ioos:station:DISL:MBLA:1,2017-10-03T12:00:00Z,30.4367,-88.0117,14.2,8.59,62.35,-999.0,'1111122,1111122,1111122' 
DISL,ioos:station:DISL:MBLA:1,2017-10-03T12:30:00Z,30.4367,-88.0117,14.2,8.32,66.21,-999.0,'1111122,1111122,1111122' 
DISL,ioos:station:DISL:MBLA:1,2017-10-03T13:00:00Z,30.4367,-88.0117,14.2,9.14,66.16,-999.0,'1111122,1111122,1111122' 
DISL,ioos:station:DISL:MBLA:1,2017-10-03T13:30:00Z,30.4367,-88.0117,14.2,9.57,72.97,-999.0,'1111122,1111122,1111122' 
DISL,ioos:station:DISL:MBLA:1,2017-10-03T14:00:00Z,30.4367,-88.0117,14.2,9.64,77.73,-999.0,'1111122,1111122,1111122' 
DISL,ioos:station:DISL:MBLA:1,2017-10-03T14:30:00Z,30.4367,-88.0117,14.2,8.81,77.86,-999.0,'1111122,1111122,1111122' 
DISL,ioos:station:DISL:MBLA:1,2017-10-03T15:00:00Z,30.4367,-88.0117,14.2,8.6,81.5,-999.0,'1111122,1111122,1111122' 
DISL,ioos:station:DISL:MBLA:1,2017-10-03T15:30:00Z,30.4367,-88.0117,14.2,7.71,73.25,-999.0,'1111122,1111122,1111122' 
DISL,ioos:station:DISL:MBLA:1,2017-10-03T16:00:00Z,30.4367,-88.0117,14.2,8.32,76.47,-999.0,'1111122,1111122,1111122' 
DISL,ioos:station:DISL:MBLA:1,2017-10-03T16:30:00Z,30.4367,-88.0117,14.2,9.13,82.0,-999.0,'1111122,1111122,1111122' 
DISL,ioos:station:DISL:MBLA:1,2017-10-03T17:00:00Z,30.4367,-88.0117,14.2,8.15,81.8,-999.0,'1111122,1111122,1111122' 
DISL,ioos:station:DISL:MBLA:1,2017-10-03T17:30:00Z,30.4367,-88.0117,14.2,7.43,75.23,-999.0,'1111122,1111122,1111122' 
DISL,ioos:station:DISL:MBLA:1,2017-10-03T18:00:00Z,30.4367,-88.0117,14.2,6.82,83.8,-999.0,'1111122,1111122,1111122' 
DISL,ioos:station:DISL:MBLA:1,2017-10-03T18:30:00Z,30.4367,-88.0117,14.2,6.82,68.8,-999.0,'1111122,1111122,1111122' 
DISL,ioos:station:DISL:MBLA:1,2017-10-03T19:00:00Z,30.4367,-88.0117,14.2,6.75,114.6,-999.0,'1111122,1111122,1111122' 
DISL,ioos:station:DISL:MBLA:1,2017-10-03T19:30:00Z,30.4367,-88.0117,14.2,7.04,125.9,-999.0,'1111122,1111122,1111122' 
DISL,ioos:station:DISL:MBLA:1,2017-10-03T20:00:00Z,30.4367,-88.0117,14.2,5.74,128.6,-999.0,'1111122,1111122,1111122' 
DISL,ioos:station:DISL:MBLA:1,2017-10-03T20:30:00Z,30.4367,-88.0117,14.2,5.82,52.53,-999.0,'1111122,1111122,1111122' 
DISL,ioos:station:DISL:MBLA:1,2017-10-03T21:00:00Z,30.4367,-88.0117,14.2,6.76,72.24,-999.0,'1111122,1111122,1111122' 
DISL,ioos:station:DISL:MBLA:1,2017-10-03T21:30:00Z,30.4367,-88.0117,14.2,3.69,103.1,-999.0,'1111122,1111122,1111122' 
DISL,ioos:station:DISL:MBLA:1,2017-10-03T22:00:00Z,30.4367,-88.0117,14.2,4.7,76.0,99.0,'11111222,11111222,11144222' 
DISL,ioos:station:DISL:MBLA:1,2017-10-03T22:30:00Z,30.4367,-88.0117,14.2,6.25,104.6,-9999.0,'1111122,1111122,1111122' 
DISL,ioos:station:DISL:MBLA:1,2017-10-03T23:00:00Z,30.4367,-88.0117,14.2,3.9,107.0,99.0,'11111222,11111222,11144222' 
DISL,ioos:station:DISL:MBLA:1,2017-10-03T23:30:00Z,30.4367,-88.0117,14.2,5.38,102.2,-9999.0,'1111122,1111122,1111122' 
DISL,ioos:station:DISL:MBLA:1,2017-10-04T00:00:00Z,30.4367,-88.0117,14.2,4.7,63.0,99.0,'11111222,11111222,11144222' 
DISL,ioos:station:DISL:MBLA:1,2017-10-04T00:30:00Z,30.4367,-88.0117,14.2,6.33,49.87,-9999.0,'1111122,1111122,1111122' 
DISL,ioos:station:DISL:MBLA:1,2017-10-04T01:00:00Z,30.4367,-88.0117,14.2,6.0,51.0,99.0,'11111222,11111222,11144222' 
DISL,ioos:station:DISL:MBLA:1,2017-10-04T01:30:00Z,30.4367,-88.0117,14.2,6.55,44.49,-9999.0,'1111122,1111122,1111122' 
DISL,ioos:station:DISL:MBLA:1,2017-10-04T02:00:00Z,30.4367,-88.0117,14.2,7.2,42.0,99.0,'11111222,11111222,11144222' 
DISL,ioos:station:DISL:MBLA:1,2017-10-04T02:30:00Z,30.4367,-88.0117,14.2,,,-9999.0,'1111122,1111122,1111122' 
DISL,ioos:station:DISL:MBLA:1,2017-10-04T03:00:00Z,30.4367,-88.0117,14.2,8.5,41.0,99.0,'11111222,11111222,11144222' 
DISL,ioos:station:DISL:MBLA:1,2017-10-04T03:30:00Z,30.4367,-88.0117,14.2,,,-9999.0,'1111122,1111122,1111122' 
DISL,ioos:station:DISL:MBLA:1,2017-10-04T04:00:00Z,30.4367,-88.0117,14.2,10.3,52.0,99.0,'11111222,11111222,11144222' 
DISL,ioos:station:DISL:MBLA:1,2017-10-04T04:30:00Z,30.4367,-88.0117,14.2,9.63,58.09,-9999.0,'1111122,1111122,1111122' 
DISL,ioos:station:DISL:MBLA:1,2017-10-04T05:00:00Z,30.4367,-88.0117,14.2,9.3,62.0,99.0,'11111222,11111222,11144222' 
DISL,ioos:station:DISL:MBLA:1,2017-10-04T05:30:00Z,30.4367,-88.0117,14.2,10.14,68.88,-9999.0,'1111122,1111122,1111122' 
DISL,ioos:station:DISL:MBLA:1,2017-10-04T06:00:00Z,30.4367,-88.0117,14.2,9.6,62.0,99.0,'11111222,11111222,11144222' 
DISL,ioos:station:DISL:MBLA:1,2017-10-04T06:30:00Z,30.4367,-88.0117,14.2,10.45,75.01,-9999.0,'1111122,1111122,1111122' 
DISL,ioos:station:DISL:MBLA:1,2017-10-04T07:00:00Z,30.4367,-88.0117,14.2,9.5,72.0,99.0,'11111222,11111222,11144222' 
DISL,ioos:station:DISL:MBLA:1,2017-10-04T07:30:00Z,30.4367,-88.0117,14.2,9.45,71.85,-9999.0,'1111122,1111122,1111122' 
DISL,ioos:station:DISL:MBLA:1,2017-10-04T08:00:00Z,30.4367,-88.0117,14.2,9.0,70.0,99.0,'11111222,11111222,11144222' 
DISL,ioos:station:DISL:MBLA:1,2017-10-04T08:30:00Z,30.4367,-88.0117,14.2,9.92,69.23,-9999.0,'1111122,1111122,1111122' 
DISL,ioos:station:DISL:MBLA:1,2017-10-04T09:00:00Z,30.4367,-88.0117,14.2,11.0,70.0,99.0,'11111222,11111222,11144222' 
DISL,ioos:station:DISL:MBLA:1,2017-10-04T09:30:00Z,30.4367,-88.0117,14.2,10.98,69.94,-9999.0,'1111122,1111122,1111122' 
DISL,ioos:station:DISL:MBLA:1,2017-10-04T10:00:00Z,30.4367,-88.0117,14.2,11.3,67.0,99.0,'11111222,11111222,11144222' 
DISL,ioos:station:DISL:MBLA:1,2017-10-04T10:30:00Z,30.4367,-88.0117,14.2,10.8,70.0,99.0,'11111222,11111222,11144222' 
DISL,ioos:station:DISL:MBLA:1,2017-10-04T11:00:00Z,30.4367,-88.0117,14.2,9.93,62.29,-9999.0,'1111122,1111122,1111122' 
DISL,ioos:station:DISL:MBLA:1,2017-10-04T11:30:00Z,30.4367,-88.0117,14.2,8.7,54.0,99.0,'11111222,11111222,11144222' 
DISL,ioos:station:DISL:MBLA:1,2017-10-04T12:00:00Z,30.4367,-88.0117,14.2,7.6,51.0,99.0,'11111222,11111222,11144222' 
DISL,ioos:station:DISL:MBLA:1,2017-10-04T12:30:00Z,30.4367,-88.0117,14.2,8.69,61.98,-9999.0,'1111122,1111122,1111122' 
DISL,ioos:station:DISL:MBLA:1,2017-10-04T13:00:00Z,30.4367,-88.0117,14.2,10.6,67.0,99.0,'11111222,11111222,11144222' 
DISL,ioos:station:DISL:MBLA:1,2017-10-04T13:30:00Z,30.4367,-88.0117,14.2,9.9,77.41,-9999.0,'1111122,1111122,1111122' 
DISL,ioos:station:DISL:MBLA:1,2017-10-04T14:00:00Z,30.4367,-88.0117,14.2,10.0,74.0,99.0,'11111222,11111222,11144222' 
DISL,ioos:station:DISL:MBLA:1,2017-10-04T14:30:00Z,30.4367,-88.0117,14.2,8.83,78.07,-9999.0,'1111122,1111122,1111122' 
DISL,ioos:station:DISL:MBLA:1,2017-10-04T15:00:00Z,30.4367,-88.0117,14.2,8.3,72.0,99.0,'11111222,11111222,11144222' 
DISL,ioos:station:DISL:MBLA:1,2017-10-04T15:30:00Z,30.4367,-88.0117,14.2,7.88,73.8,-9999.0,'1111122,1111122,1111122' 
DISL,ioos:station:DISL:MBLA:1,2017-10-04T16:00:00Z,30.4367,-88.0117,14.2,7.4,86.0,99.0,'11111222,11111222,11144222' 
DISL,ioos:station:DISL:MBLA:1,2017-10-04T16:30:00Z,30.4367,-88.0117,14.2,6.92,78.63,-9999.0,'1111122,1111122,1111122' 
DISL,ioos:station:DISL:MBLA:1,2017-10-04T17:00:00Z,30.4367,-88.0117,14.2,6.1,76.0,99.0,'11111222,11111222,11144222' 
DISL,ioos:station:DISL:MBLA:1,2017-10-04T17:30:00Z,30.4367,-88.0117,14.2,7.44,82.9,-9999.0,'1111122,1111122,1111122' 
DISL,ioos:station:DISL:MBLA:1,2017-10-04T18:00:00Z,30.4367,-88.0117,14.2,7.2,88.0,99.0,'11111222,11111222,11144222' 
DISL,ioos:station:DISL:MBLA:1,2017-10-04T18:30:00Z,30.4367,-88.0117,14.2,4.34,87.6,-9999.0,'1111122,1111122,1111122' 
DISL,ioos:station:DISL:MBLA:1,2017-10-04T19:00:00Z,30.4367,-88.0117,14.2,4.8,44.0,99.0,'11111222,11111222,11144222' 
DISL,ioos:station:DISL:MBLA:1,2017-10-04T19:30:00Z,30.4367,-88.0117,14.2,2.9,58.75,-9999.0,'1111122,1111122,1111122' 
DISL,ioos:station:DISL:MBLA:1,2017-10-04T20:00:00Z,30.4367,-88.0117,14.2,1.8,48.0,99.0,'11111222,11111222,11144222' 
DISL,ioos:station:DISL:MBLA:1,2017-10-04T20:30:00Z,30.4367,-88.0117,14.2,1.07,38.05,-9999.0,'1111122,1111122,1111122' 
DISL,ioos:station:DISL:MBLA:1,2017-10-04T21:00:00Z,30.4367,-88.0117,14.2,1.8,321.0,99.0,'11111222,11111222,11144222' 
DISL,ioos:station:DISL:MBLA:1,2017-10-04T21:30:00Z,30.4367,-88.0117,14.2,2.41,326.9,-9999.0,'1111122,1111122,1111122' 
DISL,ioos:station:DISL:MBLA:1,2017-10-04T22:00:00Z,30.4367,-88.0117,14.2,2.5,324.0,99.0,'11111222,11111222,11144222' 
DISL,ioos:station:DISL:MBLA:1,2017-10-04T22:30:00Z,30.4367,-88.0117,14.2,2.02,359.9,-9999.0,'1111122,1111122,1111122' 
DISL,ioos:station:DISL:MBLA:1,2017-10-04T23:00:00Z,30.4367,-88.0117,14.2,1.3,56.0,99.0,'11111222,11111222,11144222' 
DISL,ioos:station:DISL:MBLA:1,2017-10-04T23:30:00Z,30.4367,-88.0117,14.2,3.34,159.5,-9999.0,'1111122,1111122,1111122' 
DISL,ioos:station:DISL:MBLA:1,2017-10-05T00:00:00Z,30.4367,-88.0117,14.2,1.9,151.0,99.0,'11111222,11111222,11144222' 
DISL,ioos:station:DISL:MBLA:1,2017-10-05T00:30:00Z,30.4367,-88.0117,14.2,2.06,162.1,-9999.0,'1111122,1111122,1111122' 
DISL,ioos:station:DISL:MBLA:1,2017-10-05T01:00:00Z,30.4367,-88.0117,14.2,2.8,63.0,99.0,'11111222,11111222,11144222' 
DISL,ioos:station:DISL:MBLA:1,2017-10-05T01:30:00Z,30.4367,-88.0117,14.2,4.52,51.3,-9999.0,'1111122,1111122,1111122' 
DISL,ioos:station:DISL:MBLA:1,2017-10-05T02:00:00Z,30.4367,-88.0117,14.2,6.5,46.0,99.0,'11111222,11111222,11144222' 
DISL,ioos:station:DISL:MBLA:1,2017-10-05T02:30:00Z,30.4367,-88.0117,14.2,,,-9999.0,'1111122,1111122,1111122' 
DISL,ioos:station:DISL:MBLA:1,2017-10-05T03:00:00Z,30.4367,-88.0117,14.2,7.8,55.0,99.0,'11111222,11111222,11144222' 
DISL,ioos:station:DISL:MBLA:1,2017-10-05T03:30:00Z,30.4367,-88.0117,14.2,,,-9999.0,'1111122,1111122,1111122' 
DISL,ioos:station:DISL:MBLA:1,2017-10-05T04:00:00Z,30.4367,-88.0117,14.2,8.6,48.0,99.0,'11111222,11111222,11144222' 
DISL,ioos:station:DISL:MBLA:1,2017-10-05T04:30:00Z,30.4367,-88.0117,14.2,9.42,49.72,-9999.0,'1111122,1111122,1111122' 